Regional Weather Roundup
Issued by NWS

Home | Current Version | Previous Version | Text Only | Print | Product List | Glossary On
Versions: 1 2 3 4 5 6 7 8 9 10 11 12 13 14 15 16 17 18 19 20 21 22 23 24 25 26 27 28 29 30 31 32 33 34 35 36 37 38 39 40 41 42 43 44 45 46 47 48 49 50
256
ASUS43 KMKX 271621
RWRWI

WISCONSIN REGIONAL WEATHER ROUNDUP
NATIONAL WEATHER SERVICE MILWAUKEE/SULLIVAN WI
1100 AM CDT WED JUL 27 2016

NOTE: "FAIR" INDICATES FEW OR NO CLOUDS BELOW 12,000 FEET WITH NO
SIGNIFICANT WEATHER AND/OR OBSTRUCTIONS TO VISIBILITY.

WIZ001-002-006>008-014>016-023>028-271700-
NORTHWEST WISCONSIN

CITY           SKY/WX    TMP DP  RH WIND       PRES   REMARKS
SUPERIOR ARPT  CLOUDY    64  60  87 E13G20    30.01R
ASHLAND        CLOUDY    68  64  87 N15       30.01S
HAYWARD        LGT RAIN  68  65  90 CALM      30.02R
SIREN          PTSUNNY   72  68  88 SE7       29.97F
CUMBERLAND     CLOUDY    72  64  78 SE6       30.01S
RICE LAKE      PTSUNNY   72  63  72 SE7       30.02F
CHETEK         CLOUDY    73  66  78 CALM      30.01S
LADYSMITH      CLOUDY    69  65  88 CALM      30.03S
EAU CLAIRE     PTSUNNY   77  68  73 SE6       29.99F
MENOMONIE      CLOUDY    78  70  76 E7        29.98F HX  80
NEW RICHMOND   CLOUDY    77  69  75 E6        29.97F
OSCEOLA        CLOUDY    77  71  82 E8        29.99F
$$

WIZ003>005-009-010-017-018-271700-
NORTH CENTRAL WISCONSIN

CITY           SKY/WX    TMP DP  RH WIND       PRES   REMARKS
MANITOWISH WTR CLOUDY    66  66 100 NE3       30.01F
ARBOR VITAE    LGT RAIN  68  66  93 E5        30.00F
WOODRUFF       LGT RAIN  68  66  93 E5        30.00F
RHINELANDER    CLOUDY    67  64  90 E5        30.05F
EAGLE RIVER    LGT RAIN  67  66  96 CALM      30.05S
LAND O LAKES   LGT RAIN  66  65  97 CALM      30.07R
PHILLIPS       DRIZZLE   67  65  94 CALM      30.02S
TOMAHAWK       CLOUDY    66  64  91 CALM      30.04S
MEDFORD        CLOUDY    67  67 100 SE5       30.03S
MERRILL        CLOUDY    66  66 100 CALM      30.04S
$$

WIZ029-030-035-036-043>047-271700-
CENTRAL WISCONSIN

CITY           SKY/WX    TMP DP  RH WIND       PRES   REMARKS
WAUSAU         CLOUDY    68  64  87 E3        30.03S
MOSINEE        SUNNY     70  68  94 NE9       30.05R
MARSHFIELD     CLOUDY    77  65  66 NE8       30.03F
STEVENS POINT  CLOUDY    66  65  96 NE9       30.04F
WAUPACA        CLOUDY    81  68  65 CALM      30.02R HX  84
WAUTOMA        MOSUNNY   82  72  69 W7        30.00F HX  87
WISC RAPIDS    PTSUNNY   75  62  64 NE12      30.04S
CAMP DOUGLAS   MOSUNNY   82  70  65 VRB1      30.00F HX  86
$$

WIZ011>013-019>022-031-037>040-048>050-271700-
NORTHEAST WISCONSIN

CITY           SKY/WX    TMP DP  RH WIND       PRES   REMARKS
ANTIGO         DRIZZLE   65  64  96 CALM      30.04F
SHAWANO        CLOUDY    76  65  70 N6        30.06R
OCONTO         CLOUDY    73  67  82 W7        30.03R
STURGEON BAY   PTSUNNY   77  66  68 W7        30.03R
GREEN BAY      PTSUNNY   81  69  67 NW6       30.02R HX  84
MANITOWOC      CLOUDY    74  69  85 NW5       30.00F
APPLETON       PTSUNNY   77  64  65 N9        30.02R
CLINTONVILLE   LGT RAIN  75  61  60 N8        30.05R
OSHKOSH        SUNNY     83  68  60 SW6       30.00S HX  86
$$

WIZ032>034-041-042-053>061-271700-
SOUTHWEST WISCONSIN

CITY           SKY/WX    TMP DP  RH WIND       PRES   REMARKS
LA CROSSE      SUNNY     84  68  58 VRB3      30.00S HX  87
SPARTA         SUNNY     81  68  64 W5        30.02F HX  83
VIROQUA        SUNNY     80  66  62 CALM      30.04F HX  81
BOSCOBEL       MOSUNNY   83  68  60 W9        30.03S HX  86
PRAIRIE DU CHI SUNNY     81  66  59 S3        30.01F HX  83
PLATTEVILLE    MOSUNNY   80  69  69 SW6       30.05S HX  83
$$

WIZ056-057-062-063-064-067-068-271700-
SOUTH CENTRAL WISCONSIN

CITY           SKY/WX    TMP DP  RH WIND       PRES   REMARKS
REEDSBURG      MOSUNNY   81  70  69 W7        30.01F HX  84
BARABOO/DELLS  SUNNY     82  67  62 CALM      30.02S HX  84
LONE ROCK      SUNNY     82  67  60 SW6       30.02F HX  84
MINERAL POINT  MOSUNNY   82  68  61 W5        30.06R HX  85
MADISON        PTSUNNY   83  68  60 W3        30.02R HX  86
MIDDLETON      SUNNY     83  67  57 W5        30.03S HX  86
WATERTOWN      PTSUNNY   82  71  69 W5        30.02R HX  85
MONROE         PTSUNNY   81  64  57 CALM      30.05R HX  82
JANESVILLE     MOSUNNY   82  66  57 W6        30.02R HX  85
$$

WIZ051-052-058>065-066-070>072-271700-
SOUTHEAST WISCONSIN

CITY           SKY/WX    TMP DP  RH WIND       PRES   REMARKS
MILWAUKEE      PTSUNNY   86  68  54 NW5       30.00S HX  89
WAUKESHA       MOSUNNY   81  64  57 W7        30.03S HX  82
MILWAUKEE/TIMM MOSUNNY   84  63  48 W8        30.01S HX  85
RACINE         SUNNY     85  67  54 W7        30.02S HX  87
BURLINGTON     MOSUNNY   82  65  56 W5        30.02S HX  84
KENOSHA        MOSUNNY   85  67  54 W6        30.01S HX  87
FOND DU LAC    MOSUNNY   83  71  67 SW7       30.01R HX  87
SHEBOYGAN      MOSUNNY   84  68  58 VRB5      30.00R HX  87
WEST BEND      MOSUNNY   82  68  61 W7        30.00F HX  85
JUNEAU         SUNNY     81  71  71 W6        30.03S HX  84
$$

LSZ147-162-271700-
LAKE SUPERIOR

STATION/POSITION TIME  TEMP    WIND        PRES    WAVE
                       AIR SEA DIR/SP/G            HT/PER
                 (UTC) (F)     (DEG/KT/KT) (MB)    (FT/S)
W MID LAKE BUOY  1550   63 60   50/ 14/ 16 1016.7R   1/ 4
DEVILS ISLAND    1600   63      50/ 21/ 25 1016.2F
PORT WING        1500   67      40/ 17/ 19 1015.9
SAXON HARBOR     1540   70      70/  3/  9 1015.6R
$$

LMZ867-665-643>646-271700-
LAKE MICHIGAN

STATION/POSITION TIME  TEMP    WIND        PRES    WAVE
                       AIR SEA DIR/SP/G            HT/PER
                 (UTC) (F)     (DEG/KT/KT) (MB)    (FT/S)
CHAMBERS ISLAND  1500   76      CALM  /  5 1015.2F
S GREEN BAY BUOY 1500   74 75  310/  4/  4   N/A
N MID LAKE BUOY  1550   70 70  290/  8/ 10 1014.9R   1/ 4
NORTHPORT PIER   1500   74     290/  6/ 12 1015.6R
SISTER BAY       1536   77     340/  7/  9   N/A
ALGOMA LAKESHORE 1413             CALM       N/A
KEWAUNEE LAKESHO 1500   76     120/  2/  2 1015.1R
SHEBOYGAN LAKESH 1600   72      50/  5/  6 1015.9R
PORT WASHINGTON  1500   81     100/  1/  2 1016.3
ATWATER BUOY     1600   70 60  140/  6/  6 1017.5S
MILWAUKEE LAKESH 1510   74     120/  3/  4   N/A
S MID LAKE BUOY  1550   75 75  300/  6/  6 1015.3S   0
KENOSHA   LAKESH 1600   80     130/  6/  6 1015.6S
$$

TC  - TEMPERATURE IN CELSIUS
VSB - VISIBILITY IN STATUTE MILES
WCI - WIND CHILL INDEX
HX  - HEAT INDEX





USA.gov is the U.S. government's official web portal to all federal, state and local government web resources and services.